Regional Weather Roundup
Issued by NWS

Home | Current Version | Previous Version | Graphics & Text | Print | Product List | Glossary On
Versions: 1 2 3 4 5 6 7 8 9 10 11 12 13 14 15 16 17 18 19 20 21 22 23 24 25 26 27 28 29 30 31 32 33 34 35 36 37 38 39 40 41 42 43 44 45 46 47 48 49 50
000
ASUS43 KOAX 200102
RWRNE

WEATHER ROUNDUP FOR NEBRASKA
NATIONAL WEATHER SERVICE OMAHA NE
800 PM CDT SAT AUG 19 2017

NOTES: SATELLITE DATA IS BEING USED TO AUGMENT CLOUD COVER ABOVE
       12000 FEET.
       "FAIR" INDICATES FEW OR NO CLOUDS BELOW 12,000 FEET WITH NO
       SIGNIFICANT WEATHER AND/OR OBSTRUCTIONS TO VISIBILITY.


NEZ001>004-019>022-054>056-200200-
NEBRASKA PANHANDLE

CITY           SKY/WX    TMP DP  RH WIND       PRES   REMARKS
SCOTTSBLUFF    CLEAR     92  43  18 CALM      29.89S
ALLIANCE       CLEAR     87  51  28 CALM      29.89S
CHADRON        CLEAR     92  42  17 CALM      29.83S
GORDON         FAIR      85  55  35 CALM      29.87S
KIMBALL        CLEAR     84  42  22 NE6       29.99R
SIDNEY         CLEAR     87  50  27 E8        29.95R
$$

NEZ057>060-069>072-079>082-200200-
SOUTHWEST NEBRASKA

CITY           SKY/WX    TMP DP  RH WIND       PRES   REMARKS
NORTH PLATTE   CLOUDY    88  70  55 CALM      29.80F HX  93
IMPERIAL       CLOUDY    89  60  37 S6        29.85S
LEXINGTON      CLOUDY    84  66  55 SE8       29.81S
MCCOOK         CLOUDY    88  63  43 S12       29.81F
OGALLALA       CLEAR     83  65  54 N6        29.85S
$$

NEZ005>010-023>029-035>040-094-200200-
NORTH CENTRAL NEBRASKA

CITY           SKY/WX    TMP DP  RH WIND       PRES   REMARKS
VALENTINE      CLEAR     90  51  26 N6        29.78S
AINSWORTH      CLOUDY    89  64  43 CALM      29.78S HX  90
BROKEN BOW     CLOUDY    87  67  51 SE13      29.81F HX  90
O`NEILL        CLOUDY    79  70  74 SE10      29.81R
ORD            CLOUDY    79  68  69 E7        29.81F
THEDFORD       CLEAR     90  62  39 SW8       29.80F HX  91
$$

NEZ041-046>049-061>064-073>077-083>087-200200-
SOUTH CENTRAL NEBRASKA

CITY           SKY/WX    TMP DP  RH WIND       PRES   REMARKS
GRAND ISLAND   CLOUDY    82  73  74 SE13      29.82S
AURORA         PTCLDY    80  72  76 SE9       29.83S
HASTINGS       CLEAR     83  69  62 SE9       29.85R
HEBRON         CLEAR     83  71  66 SE8       29.83F
HOLDREGE       CLEAR     80  66  62 SE7       29.83S
KEARNEY        CLOUDY    80  66  62 SE10      29.82S
YORK           CLEAR     79  72  78 SE7       29.85R
$$

NEZ011>018-030>034-042>045-200200-
NORTHEAST NEBRASKA

CITY           SKY/WX    TMP DP  RH WIND       PRES   REMARKS
NORFOLK        CLOUDY    76  67  73 SE12      29.82F
ALBION         CLOUDY    78  72  80 SE3       29.84F
BLAIR          CLEAR     77  62  59 SE6       29.87S
COLUMBUS       CLEAR     78  68  71 SE10      29.83F
FREMONT        CLEAR     79  61  54 SE10      29.86R
TEKAMAH        PTCLDY    76  67  73 SE6       29.85S
WAYNE          PTCLDY    73  70  91 SE6       29.84S
$$

NEZ050>053-065>068-078-088>093-200200-
SOUTHEAST NEBRASKA

CITY           SKY/WX    TMP DP  RH WIND       PRES   REMARKS
LINCOLN        CLEAR     82  65  56 SE12      29.85F
OMAHA EPPLEY   PTCLDY    82  61  48 SE10      29.86F
BEATRICE       CLEAR     88  66  49 SE9       29.85S HX  90
FALLS CITY     CLEAR     81  69  67 SE7       29.86F
NEBRASKA CITY  CLEAR     79  65  62 SE7       29.87S
PLATTSMOUTH    CLEAR     78  62  57 E7        29.87S
$$

NEZ044-045-051>053-067-200200-
OMAHA AREA

CITY           SKY/WX    TMP DP  RH WIND       PRES   REMARKS
OMAHA EPPLEY   PTCLDY    82  61  48 SE10      29.86F
BLAIR          CLEAR     77  62  59 SE6       29.87S
FREMONT        CLEAR     79  61  54 SE10      29.86R
MILLARD        CLEAR     82  64  54 SE6       29.86S
OFFUTT AFB     CLEAR     78  62  58 SE5       29.85F
PLATTSMOUTH    CLEAR     78  62  57 E7        29.87S
WAHOO          FAIR      75  65  70 SE7       29.85S
$$




USA.gov is the U.S. government's official web portal to all federal, state and local government web resources and services.